Regional Weather Roundup
Issued by NWS

Home | Current Version | Previous Version | Graphics & Text | Print | Product List | Glossary On
Versions: 1 2 3 4 5 6 7 8 9 10 11 12 13 14 15 16 17 18 19 20 21 22 23 24 25 26 27 28 29 30 31 32 33 34 35 36 37 38 39 40 41 42 43 44 45 46 47 48 49 50
000
ASUS43 KMKX 240420
RWRWI

WISCONSIN REGIONAL WEATHER ROUNDUP
NATIONAL WEATHER SERVICE MILWAUKEE/SULLIVAN WI
1100 PM CDT MON APR 23 2018

NOTE: "FAIR" INDICATES FEW OR NO CLOUDS BELOW 12,000 FEET WITH NO
SIGNIFICANT WEATHER AND/OR OBSTRUCTIONS TO VISIBILITY.

WIZ001-002-006>008-014>016-023>028-240500-
NORTHWEST WISCONSIN

CITY           SKY/WX    TMP DP  RH WIND       PRES   REMARKS
SUPERIOR ARPT  FAIR      46  37  70 SW3       30.11R
ASHLAND        FAIR      50  29  44 SW5       30.11S
HAYWARD        FAIR      38  29  70 CALM      30.13S
SIREN          FAIR      42  33  71 CALM      30.13S
CUMBERLAND     FAIR      41  32  70 CALM      30.13F
RICE LAKE      FAIR      40  37  89 CALM      30.15S
CHETEK         FAIR      41  34  74 CALM      30.13S
LADYSMITH      FAIR      39  31  72 CALM      30.15S
EAU CLAIRE     FAIR      47  33  58 CALM      30.12F
MENOMONIE      FAIR      50  34  53 W3        30.13S
NEW RICHMOND   FAIR      44  36  73 CALM      30.14S
OSCEOLA        FAIR      44  36  74 CALM      30.16S
$$

WIZ003>005-009-010-017-018-240500-
NORTH CENTRAL WISCONSIN

CITY           SKY/WX    TMP DP  RH WIND       PRES   REMARKS
MANITOWISH WTR FAIR      34  27  73 CALM      30.13S
ARBOR VITAE    FAIR      39  28  62 CALM      30.13S
WOODRUFF       FAIR      39  28  62 CALM      30.13S
RHINELANDER    FAIR      38  28  67 W3        30.13F
EAGLE RIVER    FAIR      34  24  66 CALM      30.12S
LAND O LAKES   FAIR      32  24  74 CALM      30.14F
PHILLIPS       FAIR      37  29  74 CALM      30.13S
TOMAHAWK       FAIR      34  26  71 CALM      30.14S
MEDFORD        FAIR      38  32  78 CALM      30.13S
MERRILL        FAIR      37  28  68 CALM      30.14S
$$

WIZ029-030-035-036-043>047-240500-
CENTRAL WISCONSIN

CITY           SKY/WX    TMP DP  RH WIND       PRES   REMARKS
WAUSAU         FAIR      46  28  49 E3        30.12S
MOSINEE        FAIR      46  21  36 SE5       30.14S
MARSHFIELD     FAIR      46  30  53 CALM      30.12S
STEVENS POINT  FAIR      37  25  62 CALM      30.14F
WAUPACA        FAIR      41  32  70 CALM      30.14S
WAUTOMA        FAIR      39  29  67 CALM      30.14F
WISC RAPIDS    FAIR      41  25  53 CALM      30.14F
CAMP DOUGLAS   NOT AVBL
$$

WIZ011>013-019>022-031-037>040-048>050-240500-
NORTHEAST WISCONSIN

CITY           SKY/WX    TMP DP  RH WIND       PRES   REMARKS
ANTIGO         FAIR      44  28  53 CALM      30.15S
SHAWANO        FAIR      41  33  75 CALM      30.13F
OCONTO         FAIR      36  27  70 CALM      30.13F
STURGEON BAY   FAIR      46  28  49 E6        30.14F
GREEN BAY      FAIR      47  37  68 CALM      30.13F
MANITOWOC      FAIR      45  31  58 N5        30.14F
APPLETON       CLEAR     48  28  46 VRB3      30.12F
CLINTONVILLE   FAIR      41  28  60 CALM      30.13F
OSHKOSH        FAIR      46  34  62 CALM      30.13F
$$

WIZ032>034-041-042-053>061-240500-
SOUTHWEST WISCONSIN

CITY           SKY/WX    TMP DP  RH WIND       PRES   REMARKS
LA CROSSE      FAIR      53  33  46 E3        30.11S
SPARTA         FAIR      41  30  64 CALM      30.14S
VIROQUA        FAIR      49  31  48 E8        30.12F
BOSCOBEL       FAIR      44  33  65 CALM      30.12F
PRAIRIE DU CHI FAIR      48  32  55 CALM      30.11F
PLATTEVILLE    FAIR      53  34  48 NE10      30.11F
$$

WIZ056-057-062-063-064-067-068-240500-
SOUTH CENTRAL WISCONSIN

CITY           SKY/WX    TMP DP  RH WIND       PRES   REMARKS
REEDSBURG      FAIR      46  34  63 CALM      30.12F
BARABOO/DELLS  FAIR      45  30  55 CALM      30.12F
LONE ROCK      FAIR      46  34  62 CALM      30.12S
MINERAL POINT  FAIR      54  32  43 E7        30.11F
MADISON        FAIR      48  33  56 N3        30.12S
MIDDLETON      FAIR      43  36  75 CALM      30.13S
WATERTOWN      FAIR      45  33  62 CALM      30.11S
MONROE         FAIR      52  27  37 N6        30.10F
JANESVILLE     FAIR      50  28  43 NE3       30.11S
$$

WIZ051-052-058>065-066-070>072-240500-
SOUTHEAST WISCONSIN

CITY           SKY/WX    TMP DP  RH WIND       PRES   REMARKS
MILWAUKEE      MOCLDY    51  25  36 N10       30.11F
WAUKESHA       FAIR      46  23  39 CALM      30.13S
MILWAUKEE/TIMM FAIR      50  21  32 N5        30.12F
RACINE         FAIR      48  27  44 VRB7      30.13S
BURLINGTON     FAIR      48  29  48 CALM      30.11F
KENOSHA        FAIR      49  28  44 E6        30.11S
FOND DU LAC    FAIR      45  35  68 NW3       30.13S
SHEBOYGAN      FAIR      47  28  47 NE7       30.12F
WEST BEND      FAIR      45  27  49 N3        30.12F
JUNEAU         FAIR      49  30  49 E5        30.13F
$$

LSZ147-162-240500-
LAKE SUPERIOR

STATION/POSITION TIME  TEMP    WIND        PRES    WAVE
                       AIR SEA DIR/SP/G            HT/PER
                 (UTC) (F)     (DEG/KT/KT) (MB)    (FT/S)
DEVILS ISLAND    0400   50     330/  3/  3 1019.5F
SAXON HARBOR     0330   39     200/  4/  5 1019.0S
$$

LMZ867-665-643>646-240500-
LAKE MICHIGAN

STATION/POSITION TIME  TEMP    WIND        PRES    WAVE
                       AIR SEA DIR/SP/G            HT/PER
                 (UTC) (F)     (DEG/KT/KT) (MB)    (FT/S)
NORTHPORT PIER   0340   42                 1020.7F
KEWAUNEE LAKESHO 0354   46     340/  2/  4 1019.9F
SHEBOYGAN LAKESH 0400   46     360/ 12/ 15 1020.1F
PORT WASHINGTON  0330   52     360/  5/  7 1020.7F
MILWAUKEE LAKESH 0400   50     350/  9/ 13   N/A
KENOSHA   LAKESH 0400   44                 1019.6
$$

TC  - TEMPERATURE IN CELSIUS
VSB - VISIBILITY IN STATUTE MILES
WCI - WIND CHILL INDEX
HX  - HEAT INDEX





USA.gov is the U.S. government's official web portal to all federal, state and local government web resources and services.